Overview Statistics Trail Chart Weather Telemetry Raw packets
 

This is the latest recevied weather packets stored in our database for station/object W5CDN. If no packets are shown the sender has not sent any weather packets the latest 10 day(s).

<< 54 55 56 57 58 59 60 >>
Time Temp. Humidity Pressure Rain* Wind** Luminosity Snow
1788041336 37.78° C 37% 1012.7 hPa 0 mm - - -
1788041036 37.22° C 37% 1012.7 hPa 0 mm - - -
1788040736 36.67° C 37% 1012.8 hPa 0 mm - - -
1788040436 37.22° C 37% 1013 hPa 0 mm - - -
1788040136 37.22° C 37% 1013 hPa 0 mm - - -
1788039836 37.78° C 37% 1013 hPa 0 mm - - -
1788039536 37.78° C 37% 1012.9 hPa 0 mm - - -
1788039236 37.22° C 37% 1013.2 hPa 0 mm - - -
1788039176 37.22° C 38% 1012.9 hPa 0 mm - - -
1788038636 37.78° C 38% 1013.2 hPa 0 mm - - -
1788038336 37.78° C 37% 1013.3 hPa 0 mm - - -
1788038036 37.78° C 37% 1013.4 hPa 0 mm - - -
1788037736 37.78° C 37% 1013.5 hPa 0 mm - - -
1788037436 36.67° C 38% 1013.7 hPa 0 mm - - -
1788037136 37.22° C 38% 1013.6 hPa 0 mm - - -
1788036836 37.78° C 38% 1013.5 hPa 0 mm - - -
1788036536 37.78° C 38% 1013.7 hPa 0 mm - - -
1788036236 37.78° C 38% 1013.9 hPa 0 mm - - -
1788035936 37.78° C 38% 1013.8 hPa 0 mm - - -
1788035636 38.33° C 37% 1013.9 hPa 0 mm - - -
1788035336 38.33° C 38% 1014.1 hPa 0 mm - - -
1788035036 37.22° C 38% 1014.2 hPa 0 mm - - -
1788034736 37.78° C 38% 1014.3 hPa 0 mm - - -
1788034436 37.22° C 38% 1014.2 hPa 0 mm - - -
1788034136 37.22° C 39% 1014.3 hPa 0 mm - - -

* Rain latest hour (hover to see other rain measurements)
** Current wind speed in m/s (hover to see current wind gust speed)